Location: Unspecified
(0.0000°N, 0.0000°E)
Time: 21:14:26
(UTC+02:00)

Cosmos 2263 Rocket - Visible Passes

Search period start: 20 June 2018 00:00
Search period end: 30 June 2018 00:00
Orbit: 823 x 849 km, 71.0° (Epoch: 20 June)

Date Brightness Start Highest point End Pass type
(mag) Time Alt. Az. Time Alt. Az. Time Alt. Az.
20 Jun 2.3 20:31:11 10° S 20:36:44 56° ESE 20:42:17 10° NNE visible
21 Jun 5.5 07:33:59 10° NE 07:36:30 13° ENE 07:39:03 10° ESE visible
21 Jun 5.5 22:02:32 10° W 22:03:40 11° WNW 22:04:48 10° WNW visible
22 Jun 5.7 07:18:00 10° NE 07:19:47 11° ENE 07:21:34 10° E visible
22 Jun 5.4 21:44:45 10° W 21:46:56 12° WNW 21:49:07 10° NW visible
23 Jun 5.3 21:27:23 10° WSW 21:30:12 14° WNW 21:33:02 10° NW visible
24 Jun 5.3 21:10:09 10° WSW 21:13:28 16° WNW 21:16:47 10° NW visible
25 Jun 5.2 20:53:01 10° WSW 20:56:44 18° WNW 21:00:27 10° NNW visible
26 Jun 5.2 20:35:58 10° WSW 20:40:01 20° WNW 20:44:03 10° NNW visible
27 Jun 2.1 07:34:14 10° NNW 07:39:46 81° WSW 07:45:20 10° SSE visible
27 Jun 5.1 20:18:57 10° SW 20:23:16 22° WNW 20:27:37 10° NNW visible
28 Jun 2.2 07:17:30 10° NNW 07:23:03 90° ENE 07:28:37 10° SSE visible
29 Jun 2.3 07:00:47 10° NNW 07:06:19 81° ENE 07:11:52 10° SSE visible
